When you browse on this site, cookies collect data to enhance your experience and personalize the content and advertising you see.
Visit our Privacy Policy to learn more. By continuing to use the site, you agree to this use of cookies and data.
  • In Hungary
  • List of Countries
  • For 7 days
  • Water Temperature
  • Weather Map
  • News
  • Weather Widgets
  • user-avatar
    Login

    Hourly Weather Lutkowo

    Today, 21 August, Wednesday

    Time Temperature Precipitation Wind Pressure Humidity
    00:00 +17°C° 0 mm 3 mps 757 mmHg 69%
    01:00 +17°C° 0 mm 3 mps 757 mmHg 68%
    02:00 +17°C° 0.4 mm 2 mps 757 mmHg 72%
    03:00 +16°C° 0.4 mm 2 mps 757 mmHg 76%
    04:00 +16°C° 0.4 mm 1 mps 757 mmHg 80%
    05:00 +15°C° 2.2 mm 2 mps 757 mmHg 85%
    06:00 +15°C° 2.2 mm 2 mps 757 mmHg 90%
    07:00 +14°C° 2.2 mm 2 mps 757 mmHg 95%
    08:00 +15°C° 0.9 mm 2 mps 757 mmHg 94%
    09:00 +15°C° 0.9 mm 2 mps 758 mmHg 93%
    10:00 +15°C° 0.9 mm 2 mps 758 mmHg 93%
    11:00 +16°C° 0.1 mm 2 mps 758 mmHg 87%
    12:00 +17°C° 0.1 mm 2 mps 759 mmHg 81%
    13:00 +18°C° 0.1 mm 2 mps 759 mmHg 76%
    14:00 +18°C° 0 mm 2 mps 759 mmHg 73%
    15:00 +19°C° 0 mm 2 mps 759 mmHg 71%
    16:00 +19°C° 0 mm 2 mps 759 mmHg 69%
    17:00 +18°C° 0 mm 2 mps 759 mmHg 75%
    18:00 +17°C° 0 mm 2 mps 759 mmHg 80%
    19:00 +16°C° 0 mm 1 mps 759 mmHg 86%
    20:00 +15°C° 0 mm 2 mps 759 mmHg 87%
    21:00 +15°C° 0 mm 2 mps 760 mmHg 88%
    22:00 +14°C° 0 mm 2 mps 760 mmHg 89%
    23:00 +14°C° 0 mm 2 mps 760 mmHg 89%

    Tomorrow, 22 August, Thursday

    Time Temperature Precipitation Wind Pressure Humidity
    00:00 +14°C° 0 mm 2 mps 760 mmHg 89%
    01:00 +14°C° 0 mm 2 mps 760 mmHg 89%
    02:00 +13°C° 0 mm 2 mps 760 mmHg 89%
    03:00 +13°C° 0 mm 2 mps 760 mmHg 89%
    04:00 +13°C° 0 mm 2 mps 760 mmHg 89%
    05:00 +14°C° 0 mm 2 mps 761 mmHg 87%
    06:00 +15°C° 0 mm 2 mps 761 mmHg 84%
    07:00 +16°C° 0 mm 3 mps 761 mmHg 82%
    08:00 +17°C° 0 mm 3 mps 761 mmHg 77%
    09:00 +18°C° 0 mm 3 mps 761 mmHg 71%
    10:00 +20°C° 0 mm 2 mps 762 mmHg 66%
    11:00 +20°C° 0 mm 2 mps 761 mmHg 63%
    12:00 +21°C° 0 mm 2 mps 761 mmHg 60%
    13:00 +21°C° 0 mm 2 mps 761 mmHg 57%
    14:00 +21°C° 0 mm 2 mps 761 mmHg 56%
    15:00 +22°C° 0 mm 1 mps 761 mmHg 55%
    16:00 +22°C° 0 mm 1 mps 761 mmHg 54%
    17:00 +20°C° 0 mm 2 mps 761 mmHg 60%
    18:00 +18°C° 0 mm 2 mps 761 mmHg 66%
    19:00 +17°C° 0 mm 3 mps 760 mmHg 72%
    20:00 +16°C° 0 mm 3 mps 761 mmHg 75%
    21:00 +14°C° 0 mm 3 mps 761 mmHg 78%
    22:00 +14°C° 0 mm 4 mps 761 mmHg 81%
    23:00 +14°C° 0 mm 4 mps 761 mmHg 81%

    Day after tomorrow, 23 August, Friday

    Time Temperature Precipitation Wind Pressure Humidity
    00:00 +14°C° 0 mm 3 mps 761 mmHg 80%
    01:00 +14°C° 0 mm 3 mps 761 mmHg 80%
    02:00 +13°C° 0 mm 3 mps 761 mmHg 80%
    03:00 +13°C° 0 mm 3 mps 761 mmHg 81%
    04:00 +13°C° 0 mm 3 mps 761 mmHg 82%
    05:00 +14°C° 0 mm 3 mps 761 mmHg 79%
    06:00 +16°C° 0 mm 3 mps 761 mmHg 76%
    07:00 +18°C° 0 mm 4 mps 761 mmHg 74%
    08:00 +19°C° 0 mm 3 mps 761 mmHg 69%
    09:00 +21°C° 0 mm 3 mps 761 mmHg 64%
    10:00 +22°C° 0 mm 3 mps 761 mmHg 59%
    11:00 +24°C° 0 mm 3 mps 761 mmHg 56%
    12:00 +24°C° 0 mm 2 mps 761 mmHg 54%
    13:00 +25°C° 0 mm 2 mps 761 mmHg 51%
    14:00 +24°C° 0 mm 1 mps 761 mmHg 51%
    15:00 +24°C° 0 mm 1 mps 761 mmHg 51%
    16:00 +24°C° 0 mm 1 mps 760 mmHg 52%
    17:00 +23°C° 0 mm 1 mps 760 mmHg 56%
    18:00 +21°C° 0 mm 1 mps 760 mmHg 61%
    19:00 +19°C° 0 mm 2 mps 760 mmHg 66%
    20:00 +18°C° 0 mm 2 mps 760 mmHg 68%
    21:00 +17°C° 0 mm 2 mps 760 mmHg 70%
    22:00 +17°C° 0 mm 3 mps 760 mmHg 71%
    23:00 +16°C° 0 mm 3 mps 760 mmHg 71%

    24 August, Saturday

    Time Temperature Precipitation Wind Pressure Humidity
    00:00 +16°C° 0 mm 3 mps 760 mmHg 71%
    01:00 +16°C° 0 mm 3 mps 760 mmHg 71%
    02:00 +14°C° 0 mm 3 mps 760 mmHg 72%
    03:00 +14°C° 0 mm 3 mps 760 mmHg 73%
    04:00 +13°C° 0 mm 3 mps 759 mmHg 74%
    05:00 +16°C° 0 mm 2 mps 759 mmHg 72%
    06:00 +17°C° 0 mm 2 mps 759 mmHg 70%
    07:00 +18°C° 0 mm 2 mps 759 mmHg 68%
    08:00 +19°C° 0 mm 2 mps 760 mmHg 63%
    09:00 +21°C° 0 mm 2 mps 760 mmHg 58%
    10:00 +24°C° 0 mm 1 mps 760 mmHg 53%
    11:00 +24°C° 0 mm 1 mps 759 mmHg 51%
    12:00 +25°C° 0 mm 1 mps 759 mmHg 48%
    13:00 +25°C° 0 mm 1 mps 759 mmHg 46%
    14:00 +25°C° 0 mm 1 mps 759 mmHg 47%
    15:00 +25°C° 0 mm 1 mps 758 mmHg 48%
    16:00 +25°C° 0 mm 1 mps 758 mmHg 49%
    17:00 +23°C° 0 mm 2 mps 758 mmHg 56%
    18:00 +20°C° 0 mm 2 mps 758 mmHg 64%
    19:00 +18°C° 0 mm 2 mps 758 mmHg 71%
    20:00 +18°C° 0 mm 2 mps 758 mmHg 72%
    21:00 +17°C° 0 mm 2 mps 758 mmHg 74%
    22:00 +16°C° 0 mm 2 mps 758 mmHg 75%
    23:00 +16°C° 0 mm 2 mps 758 mmHg 76%

    25 August, Sunday

    Time Temperature Precipitation Wind Pressure Humidity
    00:00 +16°C° 0 mm 2 mps 758 mmHg 76%
    01:00 +15°C° 0 mm 2 mps 758 mmHg 76%
    02:00 +15°C° 0 mm 2 mps 758 mmHg 77%
    03:00 +15°C° 0 mm 2 mps 758 mmHg 77%
    04:00 +15°C° 0 mm 2 mps 758 mmHg 78%
    05:00 +16°C° 0 mm 2 mps 758 mmHg 75%
    06:00 +17°C° 0 mm 2 mps 758 mmHg 73%
    07:00 +18°C° 0 mm 3 mps 758 mmHg 71%
    08:00 +20°C° 0 mm 3 mps 758 mmHg 66%
    09:00 +21°C° 0 mm 3 mps 758 mmHg 62%
    10:00 +23°C° 0 mm 4 mps 759 mmHg 57%
    11:00 +23°C° 0 mm 4 mps 758 mmHg 55%
    12:00 +25°C° 0 mm 4 mps 758 mmHg 53%
    13:00 +26°C° 0 mm 4 mps 758 mmHg 51%
    14:00 +26°C° 0 mm 4 mps 758 mmHg 52%
    15:00 +26°C° 0 mm 4 mps 758 mmHg 53%
    16:00 +25°C° 0 mm 4 mps 757 mmHg 54%
    17:00 +23°C° 0 mm 4 mps 757 mmHg 61%
    18:00 +21°C° 0 mm 4 mps 757 mmHg 69%
    19:00 +19°C° 0 mm 4 mps 757 mmHg 76%
    20:00 +18°C° 0 mm 4 mps 757 mmHg 78%
    21:00 +18°C° 0 mm 4 mps 757 mmHg 80%
    22:00 +17°C° 0 mm 4 mps 757 mmHg 81%
    23:00 +15°C° 0 mm 4 mps 757 mmHg 81%

    26 August, Monday

    Time Temperature Precipitation Wind Pressure Humidity
    00:00 +15°C° 0 mm 4 mps 757 mmHg 82%
    01:00 +15°C° 0 mm 4 mps 757 mmHg 82%
    02:00 +15°C° 0 mm 4 mps 757 mmHg 82%
    03:00 +15°C° 0 mm 4 mps 757 mmHg 82%
    04:00 +15°C° 0 mm 4 mps 757 mmHg 81%
    05:00 +15°C° 0 mm 4 mps 756 mmHg 79%
    06:00 +17°C° 0 mm 4 mps 756 mmHg 76%
    07:00 +18°C° 0 mm 4 mps 756 mmHg 73%
    08:00 +19°C° 0 mm 4 mps 756 mmHg 71%
    09:00 +21°C° 0 mm 4 mps 756 mmHg 69%
    10:00 +22°C° 0 mm 4 mps 756 mmHg 67%
    11:00 +25°C° 0 mm 4 mps 756 mmHg 64%
    12:00 +26°C° 0 mm 4 mps 756 mmHg 61%
    13:00 +27°C° 0 mm 4 mps 756 mmHg 59%
    14:00 +27°C° 0 mm 4 mps 755 mmHg 61%
    15:00 +27°C° 0 mm 3 mps 755 mmHg 62%
    16:00 +27°C° 0 mm 3 mps 754 mmHg 64%
    17:00 +26°C° 0 mm 3 mps 754 mmHg 68%
    18:00 +24°C° 0 mm 3 mps 754 mmHg 72%
    19:00 +22°C° 0 mm 3 mps 754 mmHg 76%
    20:00 +22°C° 0 mm 4 mps 754 mmHg 76%
    21:00 +21°C° 0 mm 4 mps 755 mmHg 77%
    22:00 +21°C° 0 mm 4 mps 755 mmHg 78%
    23:00 +20°C° 0 mm 4 mps 755 mmHg 79%
    Show more